302P/Lemmon-PanSTARRS (2016)

Japanese version
Home page
Updated on November 20, 2016

---------------------------------------------------------------------

* Profile

Designation 302P/2014 K2
Discovery Date May 21, 2014
Magnitude 21.4 mag
Discoverer Pan-STARRS 1 telescope (Haleakala)

* Pictures

* Orbital Elements

Epoch 2016 May 12.0 TT = JDT 2457520.5
T 2016 Apr. 30.56133 TT                                 MPCW
q   3.3022084            (2000.0)            P               Q
n   0.11130466     Peri.  208.28342     +0.86438834     +0.49482994
a   4.2801648      Node   121.78450     -0.43926337     +0.82955381
e   0.2284857      Incl.    6.03092     -0.24470488     +0.25881228
P   8.86
From 41 observations 2007 Aug. 16-2016 Aug. 13, mean residual 0".4.

* Magnitudes Graph

        m1 = 8.5 + 5 log d + 15.0 log r

---------------------------------------------------------------------

The orbital elements are published on M.P.E.C. 2016-Q04.
The magnitudes graphs are made with Comet for Windows.

---------------------------------------------------------------------

Copyright(C) Seiichi Yoshida (comet@aerith.net). All rights reserved.